Regional Weather Roundup
Issued by NWS San Angelo, TX

Home | Current Version | Previous Version | Text Only | Print | Product List | Glossary On
Versions: 1 2 3 4 5 6 7 8 9 10 11 12 13 14 15 16 17 18 19 20 21 22 23 24 25 26 27 28 29 30 31 32 33 34 35 36 37 38 39 40 41 42 43 44 45 46 47 48 49 50
000
ASUS44 KSJT 280610
RWRSJT
WEST CENTRAL TEXAS REGIONAL WEATHER ROUNDUP
NATIONAL WEATHER SERVICE SAN ANGELO TX
1200 AM CST TUE FEB 28 2017

NOTE: "FAIR" INDICATES FEW OR NO CLOUDS BELOW 12,000 FEET WITH NO
SIGNIFICANT WEATHER AND/OR OBSTRUCTIONS TO VISIBILITY.

TXZ049-054-064>066-071>073-076>078-098-099-113-114-127-128-139-140-
154-155-168>170-280700
...LOCATIONS ACROSS WEST CENTRAL TEXAS...

CITY           SKY/WX    TMP DP  RH WIND       PRES   REMARKS
SAN ANGELO     CLEAR     66  51  58 S18G25    29.88F
ABILENE        PTCLDY    60  55  83 S7        29.88S
DYESS AFB      MOCLDY    55  44  65 SW8       29.86F
JUNCTION       CLEAR     65  60  84 CALM      29.93F
SWEETWATER     CLOUDY    64  37  37 S10       29.91S
BROWNWOOD      PTCLDY    66  59  77 S8        29.90S
COLEMAN        CLEAR     64  57  78 S9        29.90S
SONORA         PTCLDY    59  52  77 CALM      29.97S
OZONA          FAIR      61  46  59 MISG      29.95F
BRADY          NOT AVBL
$$

TEXAS PANHANDLE/OKLAHOMA PANHANDLE

CITY           SKY/WX    TMP DP  RH WIND       PRES   REMARKS
AMARILLO       MOCLDY    47  21  35 S12       29.82F
BORGER         CLOUDY    56  18  22 SW12      29.78F
CANADIAN       CLOUDY    52  21  30 W8        29.76F
DALHART        CLOUDY    44  14  29 S14       29.77F WCI  37
DUMAS          PTCLDY    42  15  34 S9        29.77F WCI  36
GUYMON         NOT AVBL
HEREFORD       PTCLDY    55  22  27 SW14      29.84F
PAMPA          CLOUDY    55  19  25 SW14      29.80S
PERRYTON       CLEAR     46  20  36 SW12      29.74S
$$

SOUTHERN PANHANDLE/SOUTH PLAINS/ROLLING PLAINS

CITY           SKY/WX    TMP DP  RH WIND       PRES   REMARKS
LUBBOCK        CLOUDY    62  21  20 SW16G24   29.87S
SNYDER         MOCLDY    58  27  30 S8        29.89F
CHILDRESS      MOCLDY    59  25  27 SW10      29.81F
SEMINOLE       MOCLDY    56  24  28 W6        29.91S
$$

PERMIAN BASIN

CITY           SKY/WX    TMP DP  RH WIND       PRES   REMARKS
MIDLAND        PTCLDY    57  27  31 W5        29.92R
ODESSA         CLOUDY    60  22  23 S3        29.93R
WINK           CLEAR     52  21  29 E5        29.90S
$$

FAR WEST/SOUTHWEST MOUNTAINS/TRANS PECOS

CITY           SKY/WX    TMP DP  RH WIND       PRES   REMARKS
ALPINE         CLEAR     55  20  25 W6        30.04S
DRYDEN           N/A     62  43  49 NE7       29.89S
EL PASO        MOCLDY    63  29  27 SW17      29.95S
FORT STOCKTON  CLEAR     63  41  44 S10       29.92S
GUADALUPE PASS CLOUDY    54  27  35 SW13G20   30.00S
MARFA          CLOUDY    40  19  43 N8        30.04R WCI  34
PECOS          CLEAR     51  21  30 W6        29.91S
$$

DALLAS/FORT WORTH METROPLEX

CITY           SKY/WX    TMP DP  RH WIND       PRES   REMARKS
DFW AIRPORT    MOCLDY    70  64  81 S13       29.87S
FTW MEACHAM    CLOUDY    70  61  73 S10       29.88S
DAL-EXECUTIVE  PTCLDY    70  64  81 S8        29.89F
GRAND PRAIRIE  PTCLDY    68  61  77 S5        29.91S
ADDISON        PTCLDY    70  63  78 S12G17    29.91R
MESQUITE       PTCLDY    67  61  81 S10       29.91S
LANCASTER      CLEAR     65  61  86 SE7       29.91F
$$

NORTH CENTRAL TEXAS

CITY           SKY/WX    TMP DP  RH WIND       PRES   REMARKS
SHRMAN/DENISON CLOUDY    61  60  97 E9        29.89S FOG
GAINESVILLE    MOCLDY    62  59  90 CALM      29.89S
BRIDGEPORT     CLOUDY    69  60  72 S9        29.88F
DENTON         CLOUDY    65  61  87 SE8       29.87F
WAXAHACHIE     CLEAR     66  63  91 S8        29.92S
GRANBURY       CLOUDY    66  61  84 E8        29.90S
$$

WESTERN NORTH TEXAS

CITY           SKY/WX    TMP DP  RH WIND       PRES   REMARKS
WICHITA FALLS  CLOUDY    64  57  78 S12       29.82F
VERNON         PTCLDY    58  43  58 S10       29.82S
BRECKENRIDGE   MOCLDY    69  58  69 S12       29.87R
COMANCHE       PTCLDY    66  61  82 S12       29.89F
$$

CENTRAL AND SOUTH CENTRAL TEXAS

CITY           SKY/WX    TMP DP  RH WIND       PRES   REMARKS
AUSTIN/BERGSTM CLOUDY    71  67  87 S12       29.94S
WACO           PTCLDY    68  65  90 S14       29.91S
HILLSBORO        N/A     69  65  87 S14       29.91S
TEMPLE         MOCLDY    68  66  93 S13       29.94S
KILLEEN-GRAY   PTCLDY    64  63  97 SE9       29.92S
FORT HOOD      MOCLDY    66  64  94 S7        29.90S
GEORGETOWN     CLOUDY    70  63  78 S18G25    29.93S
LAGO VISTA     CLOUDY    69  66  91 S12G18    29.95F
SAN MARCOS     CLOUDY    70  66  88 S12       29.95F
NEW BRAUNFELS  CLOUDY    70  66  87 S10       29.94S FOG
RANDOLPH AFB   CLOUDY    70  70 100 S10       29.94F
SAN ANTONIO    CLOUDY    69  66  90 SE12      29.95S
STINSON        CLOUDY    71  67  87 SE12      29.92S FOG
PLEASANTON     NOT AVBL
LA GRANGE      MOCLDY    71  69  94 S6        29.94S FOG
GIDDINGS       MOCLDY    69  67  92 S6        29.96S FOG
$$

EAST TEXAS

CITY           SKY/WX    TMP DP  RH WIND       PRES   REMARKS
PARIS          CLOUDY    61  59  94 SE9       29.93S
CLARKSVILLE    NOT AVBL
TYLER          CLOUDY    72  66  81 S13       29.94F
LONGVIEW       PTCLDY    71  67  87 S10       29.95S
PALESTINE      MOCLDY    71  68  90 SE7       29.97S
NACOGDOCHES    MOCLDY    70  64  83 SE7       29.96F
$$

TEXAS HILL COUNTRY AND EDWARDS PLATEAU

CITY           SKY/WX    TMP DP  RH WIND       PRES   REMARKS
LLANO          CLEAR     70  64  83 CALM      29.96S
HORSESHOE BAY    N/A     65  62  92 SE3       29.94S
KERRVILLE      PTCLDY    64  62  94 SE10      29.95F
FREDERICKSBRG  MOCLDY    65  62  89 S6        29.95S
ROCKSPRINGS    CLEAR     64  61  88 S12       29.97S
HONDO          PTCLDY    68  66  93 E8        29.93F FOG
UVALDE         CLEAR     64  62  93 CALM      29.92F
DEL RIO        CLEAR     66  59  78 SE7       29.88S
$$

SOUTHEAST TEXAS

CITY           SKY/WX    TMP DP  RH WIND       PRES   REMARKS
COLLEGE STN    CLOUDY    71  68  90 S8        29.95S
CALDWELL       NOT AVBL
CROCKETT       PTCLDY    68  66  94 S3        30.00S
BRENHAM        CLOUDY    73  71  93 S8        29.97R
HUNTSVILLE     CLOUDY    72  68  87 S6        29.97S
CONROE         CLOUDY    72  69  90 S9        29.97F
HOUSTON BUSH   MOCLDY    74  69  85 S12       29.97F
HOUSTON HOBBY  CLOUDY    72  70  93 S10       29.97F
PERLAND        CLOUDY    74  70  87 S9        29.99F
WHARTON        CLOUDY    72  69  90 SE10      29.96F
$$

THE UPPER TEXAS COAST

CITY           SKY/WX    TMP DP  RH WIND       PRES   REMARKS
ORANGE         CLOUDY    71  69  94 S12G20    30.03S
PORT ARTHUR    CLOUDY    72  68  87 S14       30.00S
GALVESTON      CLOUDY    71  70  96 SE16      29.99F FOG
ANGLETON       CLOUDY    73  72  96 S12       29.98S
BAY CITY       CLOUDY    73  73 100 S9        29.97S FOG
$$

TEXAS COASTAL BEND, RIO GRANDE PLAINS DEEP SOUTH TEXAS

CITY           SKY/WX    TMP DP  RH WIND       PRES   REMARKS
VICTORIA       CLOUDY    73  70  90 S14       29.95F FOG
BEEVILLE       CLOUDY    65  65 100 SE7       29.94S FOG
ROCKPORT       CLOUDY    73  71  93 S10G20    29.93F FOG
PORT ARANSAS   CLOUDY    71  70  97 S8        29.94F FOG
PORT LAVACA    CLOUDY    72  72 100 CALM      29.95F FOG
CORPUS CHRISTI CLOUDY    74  72  93 S17       29.93S FOG
KINGSVILLE NAS CLOUDY    74  73  97 SE8       29.92F FOG
COTULLA        CLEAR     71  66  84 SE9       29.90S
LAREDO         CLEAR     73  67  81 E8        29.90R
BROWNSVILLE    CLOUDY    74  72  93 S13       29.94F
PORT ISABEL    PTCLDY    74  72  93 S15       29.92F FOG
HEBBRONVILLE   CLOUDY    71  67  89 S12G18    29.93S
MCALLEN        CLOUDY    79  71  76 SE15      29.91F HAZE
WESLACO        CLOUDY    76  70  82 S13G24    29.91S
FALFURRIAS     CLOUDY    74  71  89 SE7       29.92S
EDINBURG       CLOUDY    79  70  74 S12G17    29.91F
$$




USA.gov is the U.S. government's official web portal to all federal, state and local government web resources and services.